N51CP KLBF-KFSD

Flight info

Callsign N51CP
Flight time 0h 53m
Altitude 29000
Route NARLY YKN
Aircraft TBM9/L-SDFGRWY/S

Departure

Time 2026-05-06 21:43
Airport North Platte Regional Airport Lee Bird Field (KLBF)

Arrival

Time 2026-05-06 22:36
Airport Sioux Falls Regional Airport (KFSD)
Time Latitude Longitude Altitude Speed Heading
2026-05-06 21:37 41.13168 -100.69569 2779 ft 0 kts 155°
2026-05-06 21:40 41.13166 -100.69568 2776 ft 3 kts 156°
2026-05-06 21:41 41.13128 -100.69527 2776 ft 10 kts 132°
2026-05-06 21:41 41.13112 -100.69432 2777 ft 11 kts 88°
2026-05-06 21:41 41.13140 -100.69391 2776 ft 4 kts 160°
2026-05-06 21:41 41.13112 -100.69349 2777 ft 12 kts 92°
2026-05-06 21:42 41.13110 -100.69211 2777 ft 17 kts 89°
2026-05-06 21:42 41.13141 -100.69084 2776 ft 15 kts 34°
2026-05-06 21:42 41.13207 -100.68994 2777 ft 14 kts 95°
2026-05-06 21:42 41.13118 -100.68825 2778 ft 43 kts 127°
2026-05-06 21:43 41.12841 -100.68310 2775 ft 92 kts 129°
2026-05-06 21:43 41.12391 -100.67522 2812 ft 127 kts 127°
2026-05-06 21:43 41.11889 -100.66441 3067 ft 141 kts 125°
2026-05-06 21:43 41.11352 -100.65322 3452 ft 145 kts 126°
2026-05-06 21:44 41.10815 -100.64173 3861 ft 148 kts 124°
2026-05-06 21:44 41.10267 -100.62976 4230 ft 155 kts 121°
2026-05-06 21:44 41.10140 -100.61574 4599 ft 162 kts 70°
2026-05-06 21:44 41.10778 -100.60322 4874 ft 170 kts 45°
2026-05-06 21:45 41.11585 -100.59064 5135 ft 185 kts 47°
2026-05-06 21:45 41.12435 -100.57732 5406 ft 194 kts 46°
2026-05-06 21:45 41.13330 -100.56363 5692 ft 202 kts 45°
2026-05-06 21:45 41.14261 -100.54913 5969 ft 209 kts 47°
2026-05-06 21:46 41.15212 -100.53439 6226 ft 215 kts 46°
2026-05-06 21:46 41.16301 -100.52065 6495 ft 217 kts 36°
2026-05-06 21:46 41.17494 -100.50802 6751 ft 220 kts 36°
2026-05-06 21:46 41.18654 -100.49456 7008 ft 223 kts 39°
2026-05-06 21:47 41.19809 -100.48038 7230 ft 227 kts 39°
2026-05-06 21:47 41.20976 -100.46631 7558 ft 226 kts 39°
2026-05-06 21:47 41.22135 -100.45252 7829 ft 226 kts 39°
2026-05-06 21:47 41.23311 -100.43847 8107 ft 227 kts 39°
2026-05-06 21:48 41.24495 -100.42430 8364 ft 229 kts 39°
2026-05-06 21:48 41.25676 -100.41011 8688 ft 229 kts 39°
2026-05-06 21:48 41.26865 -100.39582 8945 ft 231 kts 39°
2026-05-06 21:48 41.28046 -100.38164 9250 ft 231 kts 39°
2026-05-06 21:49 41.29246 -100.36725 9517 ft 233 kts 38°
2026-05-06 21:49 41.30451 -100.35276 9804 ft 234 kts 39°
2026-05-06 21:49 41.31660 -100.33823 10066 ft 236 kts 39°
2026-05-06 21:49 41.32887 -100.32349 10315 ft 236 kts 39°
2026-05-06 21:50 41.34109 -100.30876 10583 ft 237 kts 38°
2026-05-06 21:50 41.35318 -100.29422 10835 ft 238 kts 39°
2026-05-06 21:50 41.36548 -100.27939 11099 ft 237 kts 38°
2026-05-06 21:50 41.37763 -100.26475 11354 ft 238 kts 38°
2026-05-06 21:51 41.38992 -100.24992 11600 ft 239 kts 38°
2026-05-06 21:51 41.40227 -100.23503 11854 ft 239 kts 38°
2026-05-06 21:51 41.41464 -100.22008 12108 ft 240 kts 38°
2026-05-06 21:51 41.42706 -100.20509 12342 ft 241 kts 38°
2026-05-06 21:52 41.43937 -100.19021 12584 ft 242 kts 37°
2026-05-06 21:52 41.45189 -100.17508 12817 ft 243 kts 37°
2026-05-06 21:52 41.46449 -100.15984 13070 ft 244 kts 37°
2026-05-06 21:52 41.47709 -100.14456 13327 ft 244 kts 37°
2026-05-06 21:53 41.48953 -100.12951 13554 ft 245 kts 37°
2026-05-06 21:53 41.50223 -100.11412 13803 ft 246 kts 37°
2026-05-06 21:53 41.51492 -100.09872 14021 ft 246 kts 37°
2026-05-06 21:53 41.52748 -100.08348 14231 ft 247 kts 37°
2026-05-06 21:54 41.54022 -100.06801 14449 ft 247 kts 37°
2026-05-06 21:54 41.55302 -100.05247 14674 ft 248 kts 37°
2026-05-06 21:54 41.56577 -100.03697 14883 ft 248 kts 37°
2026-05-06 21:54 41.57843 -100.02158 15084 ft 249 kts 37°
2026-05-06 21:55 41.59128 -100.00597 15353 ft 249 kts 37°
2026-05-06 21:55 41.60415 -99.99030 15643 ft 250 kts 37°
2026-05-06 21:55 41.61709 -99.97454 15916 ft 251 kts 38°
2026-05-06 21:55 41.62987 -99.95895 16191 ft 252 kts 38°
2026-05-06 21:56 41.64282 -99.94316 16466 ft 253 kts 38°
2026-05-06 21:56 41.65585 -99.92726 16742 ft 253 kts 38°
2026-05-06 21:56 41.66893 -99.91130 17006 ft 255 kts 38°
2026-05-06 21:56 41.68207 -99.89525 17274 ft 255 kts 38°
2026-05-06 21:57 41.69521 -99.87919 17536 ft 256 kts 38°
2026-05-06 21:57 41.70842 -99.86302 17801 ft 257 kts 38°
2026-05-06 21:57 41.72166 -99.84684 18060 ft 258 kts 38°
2026-05-06 21:57 41.73485 -99.83067 18334 ft 259 kts 38°
2026-05-06 21:58 41.74818 -99.81436 18559 ft 260 kts 38°
2026-05-06 21:58 41.76142 -99.79814 18780 ft 261 kts 38°
2026-05-06 21:58 41.77481 -99.78172 19010 ft 261 kts 38°
2026-05-06 21:58 41.78828 -99.76517 19233 ft 262 kts 39°
2026-05-06 21:59 41.80174 -99.74865 19462 ft 262 kts 38°
2026-05-06 21:59 41.81530 -99.73199 19678 ft 264 kts 38°
2026-05-06 21:59 41.82867 -99.71554 19892 ft 264 kts 38°
2026-05-06 21:59 41.84232 -99.69877 20107 ft 265 kts 38°
2026-05-06 22:00 41.85595 -99.68199 20333 ft 266 kts 38°
2026-05-06 22:00 41.86952 -99.66527 20541 ft 267 kts 38°
2026-05-06 22:00 41.88329 -99.64830 20754 ft 268 kts 38°
2026-05-06 22:00 41.89708 -99.63130 20959 ft 269 kts 38°
2026-05-06 22:01 41.91074 -99.61444 21169 ft 270 kts 38°
2026-05-06 22:01 41.92464 -99.59728 21372 ft 271 kts 38°
2026-05-06 22:01 41.93858 -99.58006 21584 ft 272 kts 38°
2026-05-06 22:01 41.95251 -99.56284 21787 ft 273 kts 38°
2026-05-06 22:02 41.96639 -99.54566 21987 ft 274 kts 38°
2026-05-06 22:02 41.98049 -99.52822 22200 ft 275 kts 38°
2026-05-06 22:02 41.99458 -99.51076 22402 ft 276 kts 38°
2026-05-06 22:02 42.00855 -99.49345 22597 ft 276 kts 38°
2026-05-06 22:03 42.02278 -99.47580 22771 ft 279 kts 38°
2026-05-06 22:03 42.03713 -99.45802 22967 ft 281 kts 38°
2026-05-06 22:03 42.05156 -99.44008 23161 ft 282 kts 38°
2026-05-06 22:03 42.06586 -99.42231 23354 ft 283 kts 37°
2026-05-06 22:04 42.08037 -99.40427 23550 ft 284 kts 37°
2026-05-06 22:04 42.09492 -99.38617 23729 ft 285 kts 37°
2026-05-06 22:04 42.10951 -99.36801 23884 ft 286 kts 37°
2026-05-06 22:04 42.12419 -99.34973 24034 ft 287 kts 37°
2026-05-06 22:05 42.13865 -99.33170 24184 ft 287 kts 37°
2026-05-06 22:05 42.15334 -99.31337 24335 ft 288 kts 37°
2026-05-06 22:05 42.16814 -99.29490 24489 ft 289 kts 38°
2026-05-06 22:05 42.18294 -99.27641 24635 ft 290 kts 38°
2026-05-06 22:06 42.19777 -99.25788 24788 ft 291 kts 38°
2026-05-06 22:06 42.21269 -99.23923 24937 ft 292 kts 38°
2026-05-06 22:06 42.22744 -99.22059 25084 ft 294 kts 40°
2026-05-06 22:06 42.24003 -99.19842 25236 ft 301 kts 55°
2026-05-06 22:07 42.24984 -99.17320 25366 ft 304 kts 58°
2026-05-06 22:07 42.25949 -99.14811 25503 ft 305 kts 58°
2026-05-06 22:07 42.26936 -99.12260 25637 ft 306 kts 58°
2026-05-06 22:07 42.27922 -99.09701 25777 ft 307 kts 58°
2026-05-06 22:08 42.28896 -99.07165 25910 ft 308 kts 58°
2026-05-06 22:08 42.29888 -99.04579 26043 ft 309 kts 58°
2026-05-06 22:08 42.30885 -99.01982 26177 ft 310 kts 58°
2026-05-06 22:08 42.31872 -98.99410 26313 ft 311 kts 58°
2026-05-06 22:09 42.32869 -98.96807 26441 ft 312 kts 58°
2026-05-06 22:09 42.33870 -98.94191 26581 ft 313 kts 59°
2026-05-06 22:09 42.34875 -98.91563 26715 ft 314 kts 59°
2026-05-06 22:09 42.35868 -98.88965 26844 ft 315 kts 59°
2026-05-06 22:10 42.36879 -98.86316 26974 ft 316 kts 59°
2026-05-06 22:10 42.37887 -98.83673 27102 ft 316 kts 59°
2026-05-06 22:10 42.38887 -98.81047 27218 ft 317 kts 59°
2026-05-06 22:10 42.39900 -98.78384 27351 ft 318 kts 59°
2026-05-06 22:11 42.40917 -98.75710 27479 ft 319 kts 59°
2026-05-06 22:11 42.41937 -98.73027 27601 ft 320 kts 59°
2026-05-06 22:11 42.42944 -98.70374 27725 ft 321 kts 59°
2026-05-06 22:11 42.43971 -98.67666 27835 ft 323 kts 59°
2026-05-06 22:12 42.44995 -98.64960 27955 ft 323 kts 59°
2026-05-06 22:12 42.46029 -98.62229 28004 ft 327 kts 59°
2026-05-06 22:12 42.48125 -98.56679 28012 ft 334 kts 59°
2026-05-06 22:13 42.50239 -98.51073 28024 ft 338 kts 59°
2026-05-06 22:13 42.52031 -98.46313 28033 ft 341 kts 59°
2026-05-06 22:14 42.54550 -98.39610 28044 ft 343 kts 59°
2026-05-06 22:14 42.56357 -98.34788 28054 ft 345 kts 60°
2026-05-06 22:15 42.58526 -98.28995 28079 ft 345 kts 60°
2026-05-06 22:15 42.60706 -98.23157 28083 ft 346 kts 60°
2026-05-06 22:16 42.62873 -98.17345 28091 ft 347 kts 60°
2026-05-06 22:16 42.65054 -98.11483 28096 ft 347 kts 60°
2026-05-06 22:17 42.67219 -98.05649 28101 ft 347 kts 60°
2026-05-06 22:17 42.68317 -98.02688 27784 ft 352 kts 60°
2026-05-06 22:17 42.69420 -97.99701 27327 ft 352 kts 60°
2026-05-06 22:18 42.70521 -97.96723 26870 ft 352 kts 60°
2026-05-06 22:18 42.71612 -97.93771 26402 ft 352 kts 60°
2026-05-06 22:18 42.72717 -97.90776 25933 ft 351 kts 60°
2026-05-06 22:18 42.73800 -97.87834 25478 ft 351 kts 60°
2026-05-06 22:19 42.74899 -97.84850 25015 ft 350 kts 60°
2026-05-06 22:19 42.75991 -97.81882 24577 ft 350 kts 60°
2026-05-06 22:19 42.77081 -97.78914 24115 ft 350 kts 60°
2026-05-06 22:19 42.78147 -97.76001 23658 ft 347 kts 60°
2026-05-06 22:20 42.79228 -97.73053 23161 ft 346 kts 60°
2026-05-06 22:20 42.80308 -97.70113 22700 ft 345 kts 60°
2026-05-06 22:20 42.81366 -97.67224 22253 ft 343 kts 60°
2026-05-06 22:20 42.82429 -97.64312 21803 ft 342 kts 60°
2026-05-06 22:21 42.83489 -97.61407 21352 ft 340 kts 60°
2026-05-06 22:21 42.84529 -97.58561 20928 ft 338 kts 60°
2026-05-06 22:21 42.85575 -97.55689 20473 ft 337 kts 60°
2026-05-06 22:21 42.86616 -97.52829 20029 ft 335 kts 60°
2026-05-06 22:22 42.87641 -97.50015 19592 ft 333 kts 60°
2026-05-06 22:22 42.88671 -97.47177 19155 ft 332 kts 60°
2026-05-06 22:22 42.89695 -97.44352 18660 ft 330 kts 60°
2026-05-06 22:22 42.90701 -97.41583 18217 ft 328 kts 60°
2026-05-06 22:23 42.91749 -97.38836 17759 ft 323 kts 54°
2026-05-06 22:23 42.93127 -97.36471 17340 ft 315 kts 43°
2026-05-06 22:23 42.94594 -97.34242 16896 ft 314 kts 44°
2026-05-06 22:23 42.96029 -97.31998 16480 ft 312 kts 45°
2026-05-06 22:24 42.97462 -97.29775 16071 ft 310 kts 44°
2026-05-06 22:24 42.98876 -97.27599 15673 ft 309 kts 44°
2026-05-06 22:24 43.00300 -97.25397 15281 ft 308 kts 44°
2026-05-06 22:24 43.01712 -97.23206 14872 ft 307 kts 44°
2026-05-06 22:25 43.03126 -97.21016 14471 ft 306 kts 44°
2026-05-06 22:25 43.04529 -97.18839 14074 ft 304 kts 45°
2026-05-06 22:25 43.05911 -97.16696 13660 ft 303 kts 45°
2026-05-06 22:25 43.07305 -97.14532 13258 ft 301 kts 45°
2026-05-06 22:26 43.08690 -97.12380 12863 ft 298 kts 45°
2026-05-06 22:26 43.10047 -97.10270 12480 ft 296 kts 45°
2026-05-06 22:26 43.11405 -97.08156 12092 ft 294 kts 45°
2026-05-06 22:26 43.12761 -97.06046 11713 ft 292 kts 45°
2026-05-06 22:27 43.14095 -97.03961 11330 ft 291 kts 46°
2026-05-06 22:27 43.15412 -97.01906 10955 ft 289 kts 45°
2026-05-06 22:27 43.16742 -96.99833 10574 ft 287 kts 46°
2026-05-06 22:27 43.18067 -96.97773 10196 ft 286 kts 45°
2026-05-06 22:28 43.19368 -96.95748 9807 ft 285 kts 46°
2026-05-06 22:28 43.20665 -96.93692 9419 ft 282 kts 46°
2026-05-06 22:28 43.21955 -96.91675 9049 ft 280 kts 45°
2026-05-06 22:28 43.23226 -96.89703 8684 ft 278 kts 45°
2026-05-06 22:29 43.24499 -96.87703 8315 ft 277 kts 46°
2026-05-06 22:29 43.25767 -96.85710 7953 ft 275 kts 45°
2026-05-06 22:29 43.27023 -96.83723 7579 ft 274 kts 45°
2026-05-06 22:29 43.28264 -96.81781 7211 ft 272 kts 46°
2026-05-06 22:30 43.29505 -96.79837 6861 ft 268 kts 46°
2026-05-06 22:30 43.30720 -96.77938 6511 ft 265 kts 46°
2026-05-06 22:30 43.31923 -96.76037 6155 ft 263 kts 45°
2026-05-06 22:30 43.33123 -96.74142 5800 ft 261 kts 45°
2026-05-06 22:31 43.34321 -96.72269 5457 ft 260 kts 45°
2026-05-06 22:31 43.35503 -96.70394 5110 ft 259 kts 46°
2026-05-06 22:31 43.36691 -96.68525 4760 ft 257 kts 45°
2026-05-06 22:31 43.37887 -96.66737 4410 ft 254 kts 38°
2026-05-06 22:32 43.39344 -96.65430 4070 ft 246 kts 22°
2026-05-06 22:32 43.40937 -96.64703 3811 ft 236 kts
2026-05-06 22:32 43.42504 -96.64549 3800 ft 221 kts 353°
2026-05-06 22:32 43.43990 -96.64878 3803 ft 212 kts 341°
2026-05-06 22:33 43.45328 -96.65612 3799 ft 206 kts 332°
2026-05-06 22:33 43.46634 -96.66471 3648 ft 211 kts 334°
2026-05-06 22:33 43.47992 -96.67281 3401 ft 216 kts 334°
2026-05-06 22:33 43.49365 -96.68196 3132 ft 220 kts 333°
2026-05-06 22:34 43.50753 -96.69076 2879 ft 215 kts 333°
2026-05-06 22:34 43.51991 -96.69868 2634 ft 178 kts 332°
2026-05-06 22:34 43.53036 -96.70556 2392 ft 156 kts 332°
2026-05-06 22:34 43.53992 -96.71170 2173 ft 151 kts 330°
2026-05-06 22:35 43.54850 -96.71726 1978 ft 115 kts 333°
2026-05-06 22:35 43.55522 -96.72155 1865 ft 103 kts 332°
2026-05-06 22:35 43.56176 -96.72587 1731 ft 104 kts 330°
2026-05-06 22:35 43.56825 -96.73010 1604 ft 102 kts 330°
2026-05-06 22:36 43.57476 -96.73428 1443 ft 102 kts 330°
2026-05-06 22:36 43.58016 -96.73782 1426 ft 69 kts 335°
2026-05-06 22:36 43.58378 -96.74010 1424 ft 50 kts 335°
2026-05-06 22:36 43.58657 -96.74189 1425 ft 39 kts 336°
2026-05-06 22:37 43.58882 -96.74330 1427 ft 32 kts 337°
2026-05-06 22:37 43.58996 -96.74306 1426 ft 18 kts 81°
2026-05-06 22:37 43.59088 -96.74299 1425 ft 15 kts 343°
2026-05-06 22:37 43.59151 -96.74240 1425 ft 14 kts 63°
2026-05-06 22:38 43.59164 -96.74141 1424 ft 9 kts 155°
2026-05-06 22:38 43.59121 -96.74116 1425 ft 0 kts 153°